TimeEDT,TemperatureF,Dew PointF,Humidity,Sea Level PressureIn,VisibilityMPH,Wind Direction,Wind SpeedMPH,Gust SpeedMPH,PrecipitationIn,Events,Conditions,WindDirDegrees,DateUTC
12:15 AM,59.0,48.2,67,30.07,10.0,NW,4.6,-,N/A,,Overcast,320,2013-10-12 04:15:00
12:35 AM,58.5,48.7,70,30.07,10.0,NW,3.5,-,N/A,,Overcast,320,2013-10-12 04:35:00
12:55 AM,58.1,49.5,73,30.07,10.0,NNW,4.6,-,N/A,,Overcast,330,2013-10-12 04:55:00
1:15 AM,57.4,49.6,75,30.07,10.0,Calm,Calm,-,N/A,,Overcast,0,2013-10-12 05:15:00
1:35 AM,57.6,50.2,76,30.07,10.0,Calm,Calm,-,N/A,,Overcast,0,2013-10-12 05:35:00
1:55 AM,57.6,50.7,78,30.07,10.0,NW,4.6,-,N/A,,Overcast,310,2013-10-12 05:55:00
2:15 AM,58.1,50.9,77,30.07,10.0,Calm,Calm,-,N/A,,Overcast,0,2013-10-12 06:15:00
2:35 AM,57.4,50.9,79,30.06,10.0,Calm,Calm,-,N/A,,Overcast,0,2013-10-12 06:35:00
2:55 AM,57.2,50.9,79,30.06,10.0,Calm,Calm,-,N/A,,Overcast,0,2013-10-12 06:55:00
3:15 AM,56.5,50.7,81,30.06,10.0,Calm,Calm,-,N/A,,Scattered Clouds,0,2013-10-12 07:15:00
3:35 AM,56.3,50.5,81,30.06,10.0,Calm,Calm,-,N/A,,Scattered Clouds,0,2013-10-12 07:35:00
3:55 AM,55.6,51.1,85,30.06,10.0,Calm,Calm,-,N/A,,Scattered Clouds,0,2013-10-12 07:55:00
4:15 AM,56.7,50.9,81,30.06,10.0,Calm,Calm,-,N/A,,Overcast,0,2013-10-12 08:15:00
4:35 AM,57.2,50.9,79,30.06,10.0,NNW,5.8,-,N/A,,Overcast,330,2013-10-12 08:35:00
4:55 AM,57.4,51.3,80,30.06,10.0,NW,5.8,-,N/A,,Overcast,310,2013-10-12 08:55:00
5:15 AM,57.4,51.3,80,30.07,10.0,West,3.5,-,N/A,,Overcast,280,2013-10-12 09:15:00
5:35 AM,57.4,51.6,81,30.07,10.0,Calm,Calm,-,N/A,,Overcast,0,2013-10-12 09:35:00
5:55 AM,57.0,52.0,83,30.08,7.0,Calm,Calm,-,N/A,,Overcast,0,2013-10-12 09:55:00
6:15 AM,56.5,53.4,89,30.08,7.0,NNW,3.5,-,N/A,,Overcast,330,2013-10-12 10:15:00
6:35 AM,56.3,53.6,91,30.08,10.0,Calm,Calm,-,N/A,,Overcast,0,2013-10-12 10:35:00
6:55 AM,56.5,53.6,90,30.09,10.0,Calm,Calm,-,N/A,,Overcast,0,2013-10-12 10:55:00
7:35 AM,56.3,53.6,91,30.10,10.0,Calm,Calm,-,N/A,,Overcast,0,2013-10-12 11:35:00
7:55 AM,56.3,53.6,91,30.10,10.0,Calm,Calm,-,N/A,,Overcast,0,2013-10-12 11:55:00
8:15 AM,56.5,53.6,90,30.10,10.0,Calm,Calm,-,N/A,,Overcast,0,2013-10-12 12:15:00
8:35 AM,56.5,53.8,91,30.11,10.0,Calm,Calm,-,N/A,,Overcast,0,2013-10-12 12:35:00
8:55 AM,56.7,54.1,91,30.12,10.0,Calm,Calm,-,N/A,,Overcast,0,2013-10-12 12:55:00
9:15 AM,57.2,53.6,88,30.12,10.0,Calm,Calm,-,N/A,,Overcast,0,2013-10-12 13:15:00
9:35 AM,57.4,53.8,88,30.12,10.0,NW,4.6,-,N/A,,Overcast,320,2013-10-12 13:35:00
9:55 AM,58.1,53.1,83,30.12,10.0,WNW,5.8,-,N/A,,Overcast,290,2013-10-12 13:55:00
10:15 AM,58.3,53.2,83,30.12,10.0,WNW,5.8,-,N/A,,Overcast,300,2013-10-12 14:15:00
10:35 AM,58.3,53.2,83,30.13,10.0,NNW,3.5,-,N/A,,Overcast,330,2013-10-12 14:35:00
10:55 AM,59.2,53.4,81,30.13,10.0,North,3.5,-,N/A,,Overcast,350,2013-10-12 14:55:00
11:15 AM,59.9,52.7,77,30.13,10.0,NNW,3.5,-,N/A,,Overcast,330,2013-10-12 15:15:00
11:35 AM,59.7,52.2,76,30.13,10.0,NNW,3.5,-,N/A,,Overcast,330,2013-10-12 15:35:00
11:55 AM,60.6,52.3,74,30.13,10.0,NW,4.6,-,N/A,,Overcast,310,2013-10-12 15:55:00
12:15 PM,60.3,51.8,74,30.13,10.0,WNW,4.6,-,N/A,,Overcast,290,2013-10-12 16:15:00
12:35 PM,60.1,51.8,74,30.13,10.0,NNW,3.5,-,N/A,,Overcast,330,2013-10-12 16:35:00
12:55 PM,60.1,52.7,77,30.13,10.0,Calm,Calm,-,N/A,,Overcast,0,2013-10-12 16:55:00
1:15 PM,60.1,52.9,77,30.13,10.0,Calm,Calm,-,N/A,,Overcast,0,2013-10-12 17:15:00
1:35 PM,61.2,52.7,74,30.12,10.0,West,5.8,-,N/A,,Overcast,280,2013-10-12 17:35:00
1:55 PM,61.5,52.7,73,30.12,10.0,West,4.6,-,N/A,,Overcast,280,2013-10-12 17:55:00
2:15 PM,61.3,52.3,72,30.12,10.0,NW,3.5,-,N/A,,Overcast,320,2013-10-12 18:15:00
2:35 PM,61.7,52.0,70,30.12,10.0,Calm,Calm,-,N/A,,Overcast,0,2013-10-12 18:35:00
2:55 PM,62.1,52.3,70,30.12,10.0,NNW,4.6,-,N/A,,Overcast,340,2013-10-12 18:55:00
3:15 PM,63.1,52.5,68,30.12,10.0,WNW,5.8,-,N/A,,Overcast,300,2013-10-12 19:15:00
3:35 PM,63.5,52.2,67,30.13,10.0,NNW,4.6,-,N/A,,Overcast,340,2013-10-12 19:35:00
3:55 PM,62.6,52.2,69,30.13,10.0,NNW,3.5,-,N/A,,Overcast,330,2013-10-12 19:55:00
4:15 PM,62.6,52.7,70,30.13,10.0,Calm,Calm,-,N/A,,Overcast,0,2013-10-12 20:15:00
4:35 PM,62.8,52.9,70,30.13,10.0,NNW,5.8,-,N/A,,Overcast,340,2013-10-12 20:35:00
4:55 PM,62.4,53.2,72,30.13,10.0,North,3.5,-,N/A,,Overcast,360,2013-10-12 20:55:00
5:15 PM,62.6,53.8,73,30.13,10.0,North,3.5,-,N/A,,Overcast,10,2013-10-12 21:15:00
5:35 PM,62.6,54.0,73,30.14,10.0,NW,3.5,-,N/A,,Overcast,320,2013-10-12 21:35:00
5:55 PM,62.4,53.4,72,30.14,10.0,Calm,Calm,-,N/A,,Overcast,0,2013-10-12 21:55:00
6:15 PM,62.1,53.6,74,30.15,10.0,Calm,Calm,-,N/A,,Overcast,0,2013-10-12 22:15:00
6:35 PM,61.2,53.8,77,30.15,10.0,Calm,Calm,-,N/A,,Overcast,0,2013-10-12 22:35:00
6:55 PM,60.8,54.0,78,30.15,10.0,North,3.5,-,N/A,,Overcast,350,2013-10-12 22:55:00
7:15 PM,60.3,54.5,81,30.16,10.0,North,3.5,-,N/A,,Overcast,350,2013-10-12 23:15:00
7:35 PM,60.3,54.3,81,30.16,10.0,Calm,Calm,-,N/A,,Overcast,0,2013-10-12 23:35:00
7:55 PM,60.3,54.0,80,30.17,10.0,NNW,3.5,-,N/A,,Overcast,340,2013-10-12 23:55:00
8:15 PM,60.4,53.8,79,30.17,10.0,Calm,Calm,-,N/A,,Overcast,0,2013-10-13 00:15:00
8:35 PM,60.8,53.2,76,30.17,10.0,Calm,Calm,-,N/A,,Overcast,0,2013-10-13 00:35:00
8:55 PM,59.9,53.8,80,30.17,10.0,Calm,Calm,-,N/A,,Overcast,0,2013-10-13 00:55:00
9:15 PM,59.7,53.6,80,30.17,10.0,Calm,Calm,-,N/A,,Overcast,0,2013-10-13 01:15:00
9:35 PM,58.3,54.7,88,30.17,10.0,ENE,3.5,-,N/A,,Mostly Cloudy,60,2013-10-13 01:35:00
9:55 PM,58.1,55.4,91,30.18,10.0,Calm,Calm,-,N/A,,Mostly Cloudy,0,2013-10-13 01:55:00
10:15 PM,58.6,55.0,88,30.18,10.0,North,4.6,-,N/A,,Overcast,350,2013-10-13 02:15:00
10:35 PM,58.6,54.9,87,30.18,10.0,Calm,Calm,-,N/A,,Overcast,0,2013-10-13 02:35:00
10:55 PM,58.5,55.0,88,30.18,10.0,Calm,Calm,-,N/A,,Overcast,0,2013-10-13 02:55:00
11:15 PM,58.1,55.4,91,30.18,10.0,Calm,Calm,-,N/A,,Overcast,0,2013-10-13 03:15:00
11:35 PM,58.1,55.6,91,30.18,10.0,Calm,Calm,-,N/A,,Overcast,0,2013-10-13 03:35:00
11:55 PM,58.3,55.6,91,30.18,10.0,Calm,Calm,-,N/A,,Overcast,0,2013-10-13 03:55:00